Location: Caltech
(34.1382°N, 118.1253°W)
Time: 14:32:27
(UTC-07:00)

COSMOS 2428 - Visible Passes

Search period start: 24 April 2014 00:00
Search period end: 04 May 2014 00:00
Orbit: 843 x 860 km, 70.9° (Epoch: 24 April)

Date Brightness Start Highest point End Pass type
(mag) Time Alt. Az. Time Alt. Az. Time Alt. Az.
27 Apr 5.6 05:37:25 10° SE 05:40:15 14° E 05:43:05 10° ENE visible
28 Apr 5.5 05:25:17 10° SE 05:28:07 14° E 05:30:57 10° ENE visible
29 Apr 5.5 05:13:08 10° SE 05:15:59 14° E 05:18:50 10° ENE visible
30 Apr 5.5 05:01:00 10° SE 05:03:51 14° E 05:06:43 10° ENE visible
01 May 5.4 04:48:51 10° SE 04:51:43 14° E 04:54:35 10° ENE visible
02 May 5.4 04:36:43 10° SE 04:39:35 14° E 04:42:28 10° ENE visible
03 May 5.3 04:24:34 10° SE 04:27:27 14° E 04:30:20 10° ENE visible
